Simultaneous Nadir Overpasses (SNOs) Predictions

Prediction of SNOs between METOP-A and NOAA-19 Satellite Orbit:

Table of predicted SNOs for the next 14.0 days since TLE Epoch: 10/26/2018
Index Date (METOP-A) Time (METOP-A) Lat,Lon (METOP-A) SZA (METOP-A ) Date (NOAA-19) Time (NOAA-19) Lat,Lon (NOAA-19) SZA (NOAA-19 ) Distance(km) Time Diff (sec)
1 10/30/2018 06:14:13 79.29, 98.29 93.40 10/30/2018 06:13:08 79.29, 94.25 93.22 83.66 65
2 10/30/2018 07:05:01 -79.03, -96.17 86.92 10/30/2018 07:04:03 -79.01, -96.15 86.95 2.25 58
3 10/30/2018 07:55:42 79.01, 71.04 93.07 10/30/2018 07:55:00 79.01, 71.14 93.06 2.25 42
4 10/30/2018 08:46:23 -79.01,-121.65 86.93 10/30/2018 08:46:04 -79.01,-121.64 86.93 0.15 19
5 10/30/2018 09:37:04 78.99, 45.56 93.07 10/30/2018 09:37:01 79.01, 45.65 93.09 2.53 3
6 10/30/2018 10:27:45 -78.99,-147.13 86.93 10/30/2018 10:28:05 -79.01,-147.14 86.91 2.37 20
7 10/30/2018 11:18:25 79.01, 20.32 93.11 10/30/2018 11:19:02 79.01, 20.16 93.11 3.51 37
8 10/30/2018 12:09:06 -79.01,-172.37 86.89 10/30/2018 12:10:05 -78.98,-172.38 86.90 3.07 59




NCC Satellite Simultaneous Nadir Overpasses (SNOs) Prediction Service
